[[{"header":{"parameterUnit":"m.s-1","parameterCategory":1,"la1":30.2991,"la2":30.254,"lo1":-89.0895,"lo2":-89.0444,"dy":0.0017,"dx":0.0017,"nx":28,"ny":28,"refTime":"2024-02-26T03:00:00:Z","depth":0,"parameterNumber":2,"parameterNumberName":"U-component_of_WINDS"},"data":[0,0,0,0,0,0,0,0,0,0,0,0,0,0,0,0,0,0,0,0,0,0,0,0,0,0,0,0,0,0,0,0,0,0,0,0,0,0,0,0,0,0,0,0,0,0,0,0,0,0,0,0,0,0,0,0,0,0,-1.437,-1.437,0,-1.4358,-1.4358,-1.4358,-1.4353,-1.4353,-1.4353,-1.4353,-1.4338,-1.4338,-1.4337,0,0,0,0,0,0,0,0,0,0,0,0,0,-1.4387,-1.4387,-1.437,-1.437,-1.437,-1.4358,-1.4358,-1.4358,-1.4353,-1.4353,-1.4353,-1.4353,-1.4338,-1.4338,-1.4337,0,0,0,0,0,0,0,0,0,0,0,0,0,-1.4378,-1.4387,-1.437,-1.4366,-1.4366,-1.4358,-1.4358,-1.4358,-1.4353,-1.4353,-1.4353,-1.4353,-1.4339,-1.4338,-1.4337,-1.4332,0,0,-1.4335,-1.4335,0,0,0,0,0,0,0,0,-1.4379,-1.4377,-1.4367,-1.4366,-1.4366,-1.4357,-1.4359,-1.4349,-1.4353,-1.4358,-1.4353,-1.4353,-1.4344,-1.4343,-1.4341,-1.4332,-1.4331,-1.4335,-1.4335,-1.4335,-1.4335,0,0,0,0,0,0,0,-1.4379,-1.4378,-1.4365,-1.4367,-1.4366,-1.4364,-1.4363,-1.4357,-1.4351,-1.4357,-1.4357,-1.4356,-1.4344,-1.4341,-1.434,-1.4331,-1.4335,-1.4335,-1.4334,-1.4334,-1.4317,-1.4317,0,0,0,0,0,0,-1.4381,-1.4379,-1.4366,-1.4365,-1.4373,-1.4364,-1.4363,-1.436,-1.4351,-1.435,-1.4356,-1.4355,-1.4342,-1.4341,-1.434,-1.4334,-1.4335,-1.4334,-1.4334,-1.4318,-1.4317,-1.4317,0,0,0,0,0,0,-1.4381,-1.438,-1.4366,-1.4372,-1.437,-1.4364,-1.4361,-1.436,-1.4357,-1.435,-1.4348,-1.4354,-1.4342,-1.4341,-1.4335,-1.4333,-1.4334,-1.4333,-1.4318,-1.4317,-1.4317,-1.4321,0,0,0,0,0,0,-1.4382,-1.438,-1.4378,-1.4372,-1.437,-1.4362,-1.4361,-1.4359,-1.4356,-1.4356,-1.4348,-1.4347,-1.4342,-1.4336,-1.4334,-1.4332,-1.4333,-1.4318,-1.4318,-1.4317,-1.4321,-1.4321,-1.4321,0,0,0,0,0,-1.4382,-1.4379,-1.4378,-1.4377,-1.4368,-1.4362,-1.436,-1.4356,-1.4356,-1.4354,-1.435,-1.4347,-1.4334,-1.4335,-1.4333,-1.4331,-1.4318,-1.4318,-1.4317,-1.4321,-1.4321,-1.4321,0,0,0,0,0,0,-1.4385,-1.4378,-1.4377,-1.4372,-1.4368,-1.4361,-1.4358,-1.4356,-1.4351,-1.4351,-1.4345,-1.4344,-1.4338,-1.4334,-1.4335,-1.4326,-1.4325,-1.4325,-1.4329,-1.4329,-1.4329,-1.433,-1.4332,0,0,0,0,0,-1.4385,-1.4382,-1.4376,-1.4372,-1.437,-1.4364,-1.4362,-1.4359,-1.4354,-1.4352,-1.4346,-1.4341,-1.4336,-1.4332,-1.4327,-1.4321,-1.4319,-1.4319,-1.4319,-1.4319,-1.4318,-1.4315,-1.4315,-1.4317,-1.4317,-1.4317,0,0,-1.4385,-1.4381,-1.4379,-1.4372,-1.4368,-1.4364,-1.4363,-1.4358,-1.4355,-1.4351,-1.4345,-1.4341,-1.4334,-1.4328,-1.4325,-1.4325,-1.4317,-1.4319,-1.4319,-1.4318,-1.4315,-1.4314,-1.4314,-1.4317,-1.4317,-1.4317,0,0,-1.4383,-1.438,-1.4376,-1.4373,-1.4367,-1.4364,-1.4363,-1.4357,-1.4354,-1.4349,-1.4345,-1.4341,-1.4332,-1.4327,-1.4324,-1.4321,-1.4318,-1.4319,-1.4319,-1.4316,-1.4316,-1.4316,-1.4315,-1.4315,-1.4319,-1.4319,-1.4319,0,-1.4384,-1.4378,-1.4374,-1.437,-1.4367,-1.4364,-1.436,-1.4357,-1.435,-1.4347,-1.4347,-1.4336,-1.4331,-1.4324,-1.4324,-1.4321,-1.432,-1.432,-1.4317,-1.4316,-1.4316,-1.4315,-1.4315,-1.4319,-1.4319,-1.4319,-1.4319,0,-1.4379,-1.4375,-1.4372,-1.4366,-1.4363,-1.4359,-1.4355,-1.4352,-1.435,-1.4346,-1.434,-1.4335,-1.4328,-1.4327,-1.4324,-1.4319,-1.4319,-1.4318,-1.4317,-1.4316,-1.4315,-1.4315,-1.4319,-1.4319,-1.4319,-1.4319,0,0,-1.4377,-1.437,-1.4369,-1.4367,-1.4361,-1.4357,-1.4353,-1.4348,-1.4345,-1.4341,-1.4337,-1.433,-1.4329,-1.4325,-1.4322,-1.4319,-1.4317,-1.4318,-1.4318,-1.4318,-1.4312,-1.4312,-1.4312,-1.4315,-1.4315,-1.4315,-1.4312,0,-1.4374,-1.4367,-1.4364,-1.4359,-1.4355,-1.4352,-1.4348,-1.4344,-1.4341,-1.4337,-1.4333,-1.4328,-1.4327,-1.4325,-1.4322,-1.4318,-1.4316,-1.4318,-1.4311,-1.4311,-1.4313,-1.4311,-1.4312,-1.4309,-1.4312,-1.4311,-1.4311,0,-1.4369,-1.4366,-1.436,-1.4355,-1.4353,-1.435,-1.4345,-1.4341,-1.4336,-1.4334,-1.4331,-1.4328,-1.4323,-1.4323,-1.4316,-1.4318,-1.4315,-1.4312,-1.4312,-1.4311,-1.4311,-1.431,-1.4308,-1.4308,-1.4311,-1.4311,-1.4311,0,-1.4369,-1.4362,-1.4358,-1.4356,-1.435,-1.4348,-1.4345,-1.434,-1.4338,-1.4333,-1.4331,-1.4326,-1.4323,-1.4319,-1.4314,-1.4315,-1.4308,-1.4307,-1.4306,-1.4306,-1.4304,-1.4304,-1.4301,-1.4302,-1.4302,-1.4302,-1.4302,0,-1.4366,-1.4362,-1.4358,-1.4355,-1.4351,-1.4348,-1.4344,-1.4341,-1.4337,-1.4333,-1.433,-1.4327,-1.4321,-1.4317,-1.4314,-1.4309,-1.4307,-1.4305,-1.4304,-1.4305,-1.4306,-1.4303,-1.4303,-1.4302,-1.4302,-1.4302,-1.4302,0,-1.4364,-1.4361,-1.4356,-1.4351,-1.435,-1.4347,-1.4343,-1.434,-1.4337,-1.4333,-1.4331,-1.4326,-1.4321,-1.4317,-1.431,-1.4308,-1.4302,-1.4301,-1.4304,-1.4304,-1.4302,-1.4302,-1.4298,-1.4297,-1.4299,-1.4299,-1.4299,0,-1.4362,-1.4359,-1.4354,-1.4352,-1.435,-1.4346,-1.4344,-1.434,-1.4337,-1.4332,-1.433,-1.4325,-1.4321,-1.4313,-1.4308,-1.4303,-1.4301,-1.43,-1.4301,-1.4302,-1.4301,-1.4301,-1.4301,-1.43,-1.43,-1.43,-1.43,0,-1.4358,-1.4357,-1.4354,-1.435,-1.4347,-1.4344,-1.434,-1.4338,-1.4334,-1.4331,-1.4327,-1.4324,-1.4317,-1.4312,-1.4307,-1.4303,-1.4301,-1.43,-1.43,-1.43,-1.4302,-1.4301,-1.4304,-1.43,-1.43,-1.43,-1.43,-1.43,-1.4356,-1.4354,-1.4351,-1.4347,-1.4344,-1.4341,-1.4338,-1.4335,-1.4332,-1.4327,-1.4325,-1.432,-1.4316,-1.4308,-1.4305,-1.4301,-1.43,-1.4299,-1.4299,-1.4299,-1.4299,-1.4303,-1.43,-1.43,-1.43,-1.43,-1.43,0,-1.4353,-1.4351,-1.4347,-1.4343,-1.434,-1.4339,-1.4335,-1.4333,-1.4329,-1.4325,-1.4322,-1.4316,-1.4312,-1.4307,-1.4302,-1.43,-1.4298,-1.4298,-1.4298,-1.4298,-1.4299,-1.4301,-1.4299,-1.4299,-1.4299,-1.4299,-1.4299,-1.4299,-1.435,-1.4346,-1.4345,-1.434,-1.4337,-1.4333,-1.4331,-1.4328,-1.4325,-1.432,-1.4316,-1.4314,-1.431,-1.4305,-1.43,-1.4299,-1.4297,-1.4297,-1.4296,-1.4297,-1.4297,-1.4297,-1.4298,-1.4297,-1.4297,-1.4294,-1.4294,-1.4294]},{"header":{"parameterUnit":"m.s-1","parameterCategory":1,"la1":30.2991,"la2":30.254,"lo1":-89.0895,"lo2":-89.0444,"dy":0.0017,"dx":0.0017,"nx":28,"ny":28,"refTime":"2024-02-26T03:00:00:Z","depth":0,"parameterNumber":3,"parameterNumberName":"V-component_of_WINDS"},"data":[0,0,0,0,0,0,0,0,0,0,0,0,0,0,0,0,0,0,0,0,0,0,0,0,0,0,0,0,0,0,0,0,0,0,0,0,0,0,0,0,0,0,0,0,0,0,0,0,0,0,0,0,0,0,0,0,0,0,3.0873,3.0873,0,3.0825,3.0824,3.0823,3.0766,3.0765,3.0764,3.0763,3.0711,3.071,3.071,0,0,0,0,0,0,0,0,0,0,0,0,0,3.0915,3.0915,3.0873,3.0873,3.0872,3.0825,3.0824,3.0823,3.0766,3.0765,3.0764,3.0763,3.0711,3.071,3.071,0,0,0,0,0,0,0,0,0,0,0,0,0,3.0885,3.0915,3.0873,3.0838,3.0834,3.0825,3.0824,3.0823,3.0766,3.0765,3.0763,3.0762,3.0711,3.0711,3.071,3.0731,0,0,3.0707,3.0707,0,0,0,0,0,0,0,0,3.0887,3.0883,3.0843,3.084,3.0836,3.08,3.082,3.0792,3.0766,3.0792,3.0763,3.0762,3.0741,3.0738,3.0732,3.0728,3.0726,3.0707,3.0707,3.0706,3.0706,0,0,0,0,0,0,0,3.0889,3.0885,3.0854,3.0843,3.0838,3.0824,3.0818,3.0814,3.0775,3.0789,3.0785,3.078,3.0739,3.0733,3.073,3.0725,3.0707,3.0706,3.0706,3.0705,3.074,3.0741,0,0,0,0,0,0,3.0897,3.0887,3.0855,3.0852,3.0859,3.0824,3.0818,3.0813,3.0774,3.0767,3.0782,3.0778,3.0735,3.0731,3.0728,3.0752,3.0706,3.0705,3.0705,3.0739,3.074,3.0742,0,0,0,0,0,0,3.0898,3.0894,3.0857,3.0869,3.0863,3.0825,3.082,3.0812,3.0806,3.0768,3.0761,3.0782,3.0734,3.0729,3.0731,3.075,3.0705,3.0704,3.0737,3.0739,3.0741,3.08,0,0,0,0,0,0,3.0899,3.0895,3.0903,3.0869,3.0863,3.0862,3.0821,3.0812,3.0805,3.08,3.0767,3.0761,3.0732,3.0733,3.0731,3.0748,3.0704,3.0735,3.0738,3.074,3.0797,3.0804,3.0811,0,0,0,0,0,3.0901,3.092,3.0903,3.09,3.0871,3.0863,3.0859,3.0827,3.0807,3.0814,3.0791,3.0762,3.0748,3.0734,3.0731,3.0748,3.0734,3.0737,3.074,3.0793,3.0803,3.0811,0,0,0,0,0,0,3.0955,3.0915,3.0896,3.0905,3.0888,3.0853,3.0862,3.0837,3.0825,3.082,3.078,3.0773,3.0781,3.0764,3.0749,3.0768,3.0737,3.074,3.0778,3.0787,3.0794,3.0798,3.0703,0,0,0,0,0,3.0968,3.0965,3.093,3.0942,3.0934,3.09,3.0895,3.0872,3.0852,3.0844,3.082,3.0802,3.0794,3.0789,3.0779,3.0794,3.0787,3.0804,3.0811,3.0817,3.082,3.0829,3.0837,3.0752,3.0752,3.0752,0,0,3.0995,3.0973,3.0973,3.0952,3.0936,3.0934,3.0894,3.0893,3.0891,3.0844,3.0845,3.0828,3.0804,3.0814,3.0816,3.08,3.0842,3.0821,3.0826,3.0826,3.0833,3.0841,3.0849,3.0755,3.0754,3.0754,0,0,3.1043,3.1026,3.1035,3.102,3.0997,3.0975,3.0977,3.0947,3.0934,3.0935,3.09,3.0897,3.0883,3.0869,3.086,3.0906,3.088,3.0904,3.0941,3.095,3.0957,3.0963,3.0981,3.0988,3.0907,3.0907,3.0907,0,3.108,3.1076,3.1042,3.1044,3.1037,3.0995,3.1005,3.0992,3.0967,3.0962,3.0945,3.0928,3.091,3.0916,3.0928,3.0921,3.0924,3.0908,3.0959,3.0964,3.0969,3.0986,3.0993,3.091,3.091,3.091,3.0909,0,3.1122,3.112,3.113,3.1109,3.1102,3.1108,3.1075,3.1073,3.1051,3.103,3.1033,3.101,3.0996,3.0995,3.0973,3.1,3.099,3.0966,3.0935,3.0981,3.0997,3.1003,3.0915,3.0914,3.0913,3.0912,0,0,3.1202,3.1165,3.1169,3.116,3.1133,3.113,3.1135,3.1122,3.1122,3.1106,3.111,3.11,3.1079,3.1069,3.1045,3.1053,3.1094,3.1027,3.1026,3.1042,3.1124,3.1143,3.1151,3.1076,3.1077,3.1078,3.1127,0,3.1247,3.1253,3.1224,3.1238,3.1237,3.1199,3.1202,3.1187,3.1168,3.1164,3.1143,3.1138,3.1109,3.1103,3.1109,3.1087,3.111,3.1083,3.1079,3.108,3.1088,3.1159,3.1179,3.1226,3.1132,3.1133,3.1134,0,3.1299,3.1289,3.1304,3.1278,3.1277,3.1281,3.1269,3.1265,3.1247,3.1233,3.1223,3.1196,3.12,3.1169,3.1174,3.1157,3.1154,3.1143,3.1144,3.1143,3.111,3.1162,3.124,3.1248,3.1143,3.1142,3.1141,0,3.1359,3.1348,3.1356,3.1349,3.1319,3.1324,3.1311,3.1292,3.1287,3.1276,3.1273,3.1262,3.1257,3.1249,3.1221,3.1201,3.123,3.1196,3.1219,3.122,3.1227,3.1227,3.1308,3.1223,3.1223,3.1223,3.1223,0,3.1412,3.1423,3.1383,3.1388,3.1399,3.1366,3.1378,3.1362,3.1346,3.1347,3.1313,3.1315,3.1276,3.1274,3.1252,3.126,3.1257,3.1247,3.1241,3.1251,3.1253,3.1249,3.1245,3.1225,3.1224,3.1224,3.1223,0,3.1481,3.1454,3.1461,3.1433,3.1426,3.1436,3.1412,3.1416,3.1396,3.1399,3.1397,3.1366,3.1362,3.1333,3.1322,3.1307,3.1325,3.1311,3.1331,3.1328,3.1353,3.1352,3.1435,3.1445,3.1353,3.1354,3.1354,0,3.1517,3.1525,3.1499,3.1498,3.1488,3.1487,3.1483,3.1451,3.1448,3.1429,3.1436,3.1429,3.1423,3.1419,3.1395,3.1387,3.1375,3.1405,3.1373,3.1384,3.1378,3.1378,3.138,3.1412,3.1413,3.1414,3.1414,0,3.1586,3.1573,3.1568,3.1561,3.1557,3.1549,3.1538,3.1539,3.1504,3.1503,3.1499,3.1495,3.1485,3.148,3.1469,3.1456,3.143,3.1425,3.143,3.144,3.1453,3.1448,3.1351,3.1423,3.1422,3.1421,3.1421,3.1421,3.164,3.1647,3.163,3.1627,3.1616,3.1608,3.1611,3.1593,3.1589,3.158,3.1561,3.1561,3.1545,3.1527,3.1517,3.1517,3.1501,3.1508,3.151,3.1513,3.1519,3.1452,3.1515,3.1514,3.1514,3.1514,3.1514,0,3.1709,3.1697,3.1694,3.1682,3.168,3.1657,3.1645,3.1645,3.1646,3.1633,3.1628,3.1626,3.1621,3.1598,3.1592,3.1596,3.1585,3.1596,3.1596,3.1594,3.1532,3.153,3.1606,3.1606,3.1606,3.1606,3.1606,3.1606,3.1744,3.1754,3.174,3.1745,3.1732,3.1733,3.1729,3.1721,3.1711,3.1711,3.1707,3.1693,3.1676,3.1669,3.1664,3.1658,3.1658,3.1673,3.1663,3.1606,3.1598,3.1589,3.1586,3.1673,3.1673,3.1724,3.1725,3.1725]}]]